« Back
NWS Peachtree City, Ga » Text Product » GA Regional Weather Roundup


Printer-friendly Version
Current Version              Previous Versions:   1  2  3  4  5  6  7  8  9  

Regional Weather Roundup

604
ASUS42 KFFC 011403
RWRGA
WEATHER ROUNDUP FOR GEORGIA
NATIONAL WEATHER SERVICE PEACHTREE CITY GA
1000 AM EDT SUN MAY 01 2016

NOTE: "FAIR" INDICATES FEW OR NO CLOUDS BELOW 12,000 FEET WITH NO
SIGNIFICANT WEATHER AND/OR OBSTRUCTIONS TO VISIBILITY.

* = USE WITH CAUTION. THE STATIONS MARKED WITH AN ASTERISK MAY NOT
REPORT WEATHER SUCH AS PRECIPITATION, FOG, OR THUNDER AND ARE NOT
QUALITY CONTROLLED BY NWS.

THE REMARK "TC" DENOTES TEMPERATURE READING IN DEGREES CELSIUS.

GAZ001>058-011500-
NORTH GEORGIA

CITY           SKY/WX    TMP DP  RH WIND       PRES   REMARKS
ATLANTA        MOSUNNY   74  67  78 S7        30.04R
ATHENS         PTSUNNY   73  70  90 VRB3      30.05R
CHAMBLEE       MOSUNNY   73  68  84 SW5       30.04S
PEACHTREE CITY MOSUNNY   74  69  85 VRB5      30.04S
ROME           PTSUNNY   73  66  78 S6        30.01S
WEST ATLANTA   MOSUNNY   73  67  81 CALM      30.03S
GAINESVILLE    CLOUDY    69  66  90 VRB3      30.07S
CARTERSVILLE   CLOUDY    72  67  84 VRB3      30.04R


CITY           SKY/WX    TMP DP  RH WIND       PRES   REMARKS
DALTON*        CLOUDY    70  68  94 CALM      30.02R
LAWRENCEVILLE* PTSUNNY   70  66  88 SW7       30.06R FOG
MARIETTA       PTSUNNY   71  69  96 SW3       30.04S FOG
KENNESAW*      PTSUNNY   70  64  83 CALM      30.02S
CANTON*        CLOUDY    68  64  88 CALM      30.06S FOG
BLAIRSVILLE*     N/A    N/A N/A N/A MISG      30.06S
$$

GAZ059>098-102>109-011500-
CENTRAL GEORGIA

CITY           SKY/WX    TMP DP  RH WIND       PRES   REMARKS
AUGUSTA-BUSH   CLOUDY    77  69  76 S9        30.04R
AUGUSTA-DANIEL PTSUNNY   78  68  71 SW14      30.06R
COLUMBUS       MOSUNNY   75  67  76 VRB3      30.03R
MACON          MOSUNNY   76  67  73 SW7       30.05R
ROBINS AFB     SUNNY     76  69  79 SW7       30.05R


CITY           SKY/WX    TMP DP  RH WIND       PRES   REMARKS
LAGRANGE*      SUNNY     78  73  84 SW6       30.04R
SYLVANIA*      PTSUNNY   79  72  79 SW7       30.07R
MILLEDGEVILLE* CLOUDY    73  70  88 CALM      30.06R
$$

GAZ099>101-110>166-011500-
SOUTH GEORGIA

CITY           SKY/WX    TMP DP  RH WIND       PRES   REMARKS
SAVANNAH       CLOUDY    80  69  69 S10       30.08R
VALDOSTA       SUNNY     77  69  76 S15       30.05R
ALMA           PTSUNNY   75  70  84 S6        30.07R
ST SIMONS      PTSUNNY   77  72  84 VRB7      30.07R
FT STEWART     CLOUDY    75  70  85 CALM      30.05R
ALBANY         PTSUNNY   78  67  68 SW6       30.06R
HUNTER AFB     CLOUDY    78  73  84 S9        30.05R
MOODY AFB      SUNNY     78  67  69 S13       30.05R
BRUNSWICK      CLOUDY    82  72  69 S7        30.08R


CITY           SKY/WX    TMP DP  RH WIND       PRES   REMARKS
BAINBRIDGE*    CLOUDY    79  66  65 S9        30.04R
MOULTRIE*      SUNNY     77  70  78 SE6       30.06R
VIDALIA*       PTSUNNY   77  70  78 S8        30.07S
WAYCROSS*      MOSUNNY   77  69  77 S8        30.06S
DOUGLAS*       MOSUNNY   77  70  78 S7        30.07S
$$




USA.gov is the U.S. government's official web portal to all federal, state and local government web resources and services.